Content
SEND FEEDBACK

Daily
Averages
Monthly
Summary
United States of America

NEW YORK - CENTRAL PARK, NEW YORK


Home > North America > United States > New York
Elevation: 14 feet     Latitude: 40 47N     Longitude: 073 58W

WEATHER
 
SELECT A DAY
Number of Records: 148,218;   Date Range: 11/1/95 - 8/30/14
 
SHARE

PRINT THIS DATA

[ ← Previous Day ]
WEATHER ALMANAC - APRIL 16, 2014
[ Next Day → ]
[ °C ]   °F
Weather ElementAverageHighLow
Temperature38.7 °F48 °F (3:51 pm)32 °F (5:51 am)
Dewpoint19.5 °F30 °F (12:16 am)12.9 °F (11:51 pm)
Humidity50.2 %89 % (12:16 am)28 % (5:51 pm)
Barometer30.26 in30.57 in (11:51 pm)29.93 in (12:51 am)
Wind Speed8.3 mph15 mph (12:37 am)
Wind Gust27.6 mph (12:16 am)
Weather ElementAverage
Visibility8.6 mi
Wind DirectionESE (109.6 °)

Weather ElementTotal
Precipitation0.53 in
Heating Degree Days25 (Base 65)
Averaged from 28 records on April 16, 2014
WEATHER CONDITIONS BREAKOUT
WIND DIRECTION BREAKOUT
WEATHER BY HOUR - APRIL 16, 2014
[ °C ]   °F
Local TimeTemperatureDewpointHumidityBarometerVisibilityWind DirectionWind SpeedGust SpeedPrecipitationEventsConditions
12:16 AM33.1 °F30.0 °F89 %29.94 in0.8 miNW (310°)9.2 mph27.6 mph0.05 inSnowLight Snow
12:28 AM33.1 °F30.0 °F89 %29.94 in1.2 miVariable5.8 mph25.3 mph0.08 inSnowLight Snow
12:33 AM33.1 °F30.0 °F89 %29.95 in2.0 miNW (310°)12.7 mph21.9 mph0.10 inSnowLight Snow
12:37 AM33.1 °F30.0 °F89 %29.96 in3.0 miNW (310°)15.0 mph21.9 mph0.11 inRainRain
12:51 AM34.0 °F28.9 °F82 %29.93 in5.0 miNW (310°)11.5 mph21.9 mph0.13 inSnowLight Snow
1:51 AM35.1 °F27.0 °F72 %29.95 in10.0 miNW (310°)11.5 mph23.0 mph0.06 inOvercast
2:51 AM35.1 °F25.0 °F67 %29.96 in10.0 miNW (310°)10.4 mph21.9 mphMostly Cloudy
3:51 AM34.0 °F23.0 °F64 %30.04 in10.0 miNW (310°)11.5 mph23.0 mphMostly Cloudy
4:51 AM34.0 °F21.0 °F59 %30.08 in10.0 miNW (310°)9.2 mph20.7 mphMostly Cloudy
5:51 AM32.0 °F17.1 °F54 %30.14 in10.0 miVariable4.6 mph17.3 mphPartly Cloudy
6:51 AM32.0 °F16.0 °F52 %30.22 in10.0 miVariable4.6 mph18.4 mphMostly Cloudy
7:51 AM32.0 °F16.0 °F52 %30.24 in10.0 miVariable5.8 mph20.7 mphClear
8:51 AM33.1 °F16.0 °F50 %30.28 in10.0 miNorth (350°)9.2 mphClear
9:51 AM34.0 °F15.1 °F46 %30.31 in10.0 miVariable5.8 mphClear
10:51 AM37.9 °F17.1 °F43 %30.35 in10.0 miNNE (20°)9.2 mph18.4 mphClear
11:51 AM41.0 °F16.0 °F36 %30.38 in10.0 miVariable6.9 mph19.6 mphClear
12:51 PM43.0 °F17.1 °F35 %30.40 in10.0 miVariable4.6 mph20.7 mphClear
1:51 PM45.0 °F17.1 °F33 %30.41 in10.0 miVariable5.8 mph16.1 mphClear
2:51 PM46.0 °F15.1 °F29 %30.42 in10.0 miNorthClear
3:51 PM48.0 °F17.1 °F29 %30.41 in10.0 miVariable3.5 mphClear
4:51 PM48.0 °F17.1 °F29 %30.42 in10.0 miVariable3.5 mphClear
5:51 PM48.0 °F16.0 °F28 %30.43 in10.0 miNorthClear
6:51 PM46.9 °F17.1 °F30 %30.44 in10.0 miNorth (10°)9.2 mphClear
7:51 PM45.0 °F14.0 °F29 %30.46 in10.0 miNorth (10°)8.1 mphClear
8:51 PM44.1 °F15.1 °F31 %30.50 in10.0 miNE (40°)10.4 mphClear
9:51 PM42.1 °F14.0 °F32 %30.53 in10.0 miNE (40°)9.2 mph17.3 mphClear
10:51 PM41.0 °F15.1 °F35 %30.56 in10.0 miENE (60°)9.2 mphClear
11:51 PM39.9 °F12.9 °F33 %30.57 in10.0 miENE (60°)8.1 mphClear
Hourly data recorded from KNYC, located miles away from New York - Central Park, New York







STORIES FROM OUR PARTNERS